QPF
0.00 0.00 0.00 0.00 0.00 0.00 0.00 0.00 0.00 0.00 0.00 0.00 0.01 0.03 0.05 0.06 0.09 0.10 0.08 0.05 0.04 0.03 0.01 0.00 0.00 0.00 0.00 0.00 0.00 0.00 0.00 0.00 0.00 0.00 0.00 0.00 0.00 0.00 0.00 0.00 0.00 0.00 0.00 0.00
0.00 0.00 0.00 0.00 0.00 0.00 0.00 0.00 0.00 0.00 0.00 0.00 0.01 0.03 0.04 0.04 0.07 0.09 0.10 0.08 0.04 0.02 0.01 0.01 0.01 0.00 0.00 0.00 0.00 0.00 0.00 0.00 0.00 0.00 0.00 0.00 0.00 0.00 0.00 0.00 0.00 0.00 0.00 0.00
0.00 0.00 0.00 0.00 0.00 0.00 0.00 0.00 0.00 0.00 0.00 0.00 0.01 0.04 0.03 0.02 0.03 0.05 0.04 0.03 0.03 0.03 0.02 0.01 0.00 0.00 0.00 0.00 0.00 0.00 0.00 0.00 0.01 0.00 0.00 0.00 0.00 0.00 0.00 0.00 0.00 0.00 0.00 0.00
0.00 0.00 0.00 0.00 0.00 0.00 0.00 0.00 0.00 0.00 0.00 0.01 0.01 0.03 0.02 0.02 0.03 0.03 0.02 0.03 0.03 0.02 0.02 0.01 0.00 0.00 0.00 0.00 0.00 0.00 0.01 0.01 0.01 0.01 0.01 0.01 0.00 0.00 0.00 0.00 0.00 0.00 0.00 0.00
0.00 0.00 0.00 0.00 0.00 0.00 0.00 0.00 0.00 0.00 0.00 0.00 0.00 0.01 0.01 0.00 0.02 0.02 0.02 0.03 0.05 0.03 0.02 0.01 0.00 0.00 0.00 0.00 0.00 0.00 0.01 0.02 0.01 0.00 0.00 0.00 0.00 0.00 0.00 0.00 0.00 0.00 0.00 0.00
0.00 0.00 0.00 0.00 0.00 0.00 0.00 0.00 0.00 0.00 0.00 0.01 0.00 0.01 0.01 0.00 0.01 0.01 0.01 0.01 0.03 0.02 0.01 0.00 0.00 0.00 0.00 0.00 0.00 0.00 0.00 0.01 0.00 0.00 0.00 0.00 0.00 0.00 0.00 0.00 0.00 0.00 0.00 0.00
0.00 0.00 0.00 0.00 0.00 0.00 0.00 0.00 0.00 0.01 0.01 0.01 0.00 0.00 0.00 0.00 0.00 0.00 0.00 0.00 0.00 0.00 0.00 0.00 0.00 0.00 0.00 0.00 0.00 0.00 0.00 0.00 0.00 0.00 0.00 0.00 0.00 0.00 0.00 0.00 0.00 0.00 0.00 0.00
0.00 0.00 0.00 0.00 0.00 0.00 0.00 0.00 0.00 0.00 0.00 0.00 0.00 0.00 0.00 0.00 0.00 0.00 0.00 0.00 0.00 0.00 0.00 0.00 0.00 0.00 0.00 0.00 0.00 0.00 0.00 0.00 0.00 0.00 0.00 0.00 0.00 0.00 0.00 0.00 0.00 0.00 0.00 0.00
0.00 0.00 0.00 0.00 0.00 0.00 0.00 0.00 0.00 0.00 0.00 0.00 0.00 0.00 0.00 0.00 0.00 0.00 0.00 0.00 0.00 0.00 0.00 0.00 0.00 0.00 0.00 0.00 0.00 0.00 0.00 0.00 0.00 0.00 0.00 0.00 0.00 0.00 0.00 0.00 0.00 0.00 0.00 0.00
0.00 0.00 0.00 0.00 0.00 0.00 0.00 0.00 0.00 0.00 0.00 0.00 0.00 0.00 0.00 0.00 0.00 0.00 0.00 0.00 0.00 0.00 0.00 0.00 0.00 0.00 0.00 0.00 0.00 0.00 0.00 0.00 0.00 0.00 0.00 0.00 0.00 0.00 0.00 0.00 0.00 0.00 0.00 0.00
0.00 0.00 0.00 0.00 0.00 0.00 0.00 0.00 0.00 0.00 0.00 0.00 0.00 0.00 0.00 0.00 0.00 0.00 0.00 0.00 0.00 0.00 0.00 0.00 0.00 0.00 0.00 0.00 0.00 0.00 0.00 0.00 0.00 0.00 0.00 0.00 0.00 0.00 0.00 0.00 0.00 0.00 0.00 0.00
0.00 0.00 0.00 0.00 0.00 0.00 0.00 0.00 0.00 0.00 0.00 0.00 0.00 0.00 0.00 0.00 0.00 0.00 0.00 0.00 0.00 0.00 0.00 0.00 0.00 0.00 0.00 0.00 0.00 0.00 0.00 0.00 0.00 0.00 0.00 0.00 0.00 0.00 0.00 0.00 0.00 0.00 0.00 0.00
0.00 0.00 0.00 0.00 0.00 0.00 0.00 0.00 0.00 0.00 0.00 0.00 0.00 0.00 0.00 0.00 0.00 0.00 0.00 0.00 0.00 0.00 0.00 0.00 0.00 0.00 0.00 0.00 0.00 0.00 0.00 0.00 0.00 0.00 0.00 0.00 0.00 0.00 0.00 0.00 0.00 0.00 0.00 0.00
0.00 0.00 0.00 0.00 0.00 0.00 0.00 0.00 0.00 0.00 0.00 0.00 0.00 0.00 0.00 0.00 0.00 0.00 0.00 0.00 0.00 0.00 0.00 0.00 0.00 0.00 0.00 0.00 0.00 0.00 0.00 0.00 0.00 0.00 0.00 0.00 0.00 0.00 0.00 0.00 0.00 0.00 0.00 0.00
0.00 0.00 0.00 0.00 0.00 0.00 0.00 0.00 0.00 0.00 0.00 0.00 0.00 0.00 0.00 0.00 0.00 0.00 0.00 0.00 0.00 0.00 0.00 0.00 0.00 0.00 0.00 0.00 0.00 0.00 0.00 0.00 0.00 0.00 0.00 0.00 0.00 0.00 0.00 0.00 0.00 0.00 0.00 0.00
0.00 0.00 0.00 0.00 0.00 0.00 0.00 0.00 0.00 0.00 0.00 0.00 0.00 0.00 0.00 0.00 0.00 0.00 0.00 0.00 0.00 0.00 0.00 0.00 0.00 0.00 0.00 0.00 0.00 0.00 0.00 0.00 0.00 0.00 0.00 0.00 0.00 0.00 0.00 0.00 0.00 0.00 0.00 0.00
0.00 0.00 0.00 0.00 0.00 0.00 0.00 0.00 0.00 0.00 0.00 0.00 0.00 0.00 0.00 0.00 0.00 0.00 0.00 0.00 0.00 0.00 0.00 0.00 0.00 0.00 0.00 0.00 0.00 0.00 0.00 0.00 0.00 0.00 0.00 0.00 0.00 0.00 0.00 0.00 0.00 0.00 0.00 0.00
0.00 0.00 0.00 0.00 0.00 0.00 0.00 0.00 0.00 0.00 0.00 0.00 0.00 0.00 0.00 0.00 0.00 0.00 0.00 0.00 0.00 0.00 0.00 0.00 0.00 0.00 0.00 0.00 0.00 0.00 0.00 0.00 0.00 0.00 0.00 0.00 0.00 0.00 0.00 0.00 0.00 0.00 0.00 0.00
0.00 0.00 0.01 0.00 0.00 0.00 0.00 0.00 0.00 0.00 0.00 0.00 0.00 0.00 0.00 0.00 0.00 0.00 0.00 0.00 0.00 0.00 0.00 0.00 0.00 0.00 0.00 0.00 0.00 0.00 0.00 0.00 0.00 0.00 0.00 0.00 0.00 0.00 0.00 0.00 0.00 0.00 0.00 0.00
0.01 0.01 0.02 0.02 0.01 0.00 0.00 0.00 0.01 0.00 0.00 0.00 0.00 0.00 0.00 0.00 0.00 0.00 0.00 0.00 0.00 0.00 0.00 0.00 0.00 0.00 0.00 0.00 0.00 0.00 0.00 0.00 0.00 0.00 0.00 0.00 0.00 0.00 0.00 0.00 0.00 0.00 0.00 0.00
0.01 0.01 0.02 0.03 0.02 0.00 0.00 0.00 0.00 0.00 0.00 0.00 0.00 0.00 0.00 0.00 0.00 0.00 0.00 0.00 0.00 0.00 0.00 0.00 0.00 0.00 0.00 0.00 0.00 0.00 0.00 0.00 0.00 0.00 0.00 0.00 0.00 0.00 0.00 0.00 0.00 0.00 0.00 0.00
0.00 0.00 0.01 0.02 0.02 0.00 0.00 0.00 0.00 0.00 0.00 0.00 0.00 0.00 0.00 0.00 0.00 0.00 0.00 0.00 0.00 0.00 0.00 0.00 0.00 0.00 0.00 0.00 0.00 0.00 0.00 0.00 0.00 0.00 0.00 0.00 0.00 0.00 0.00 0.00 0.00 0.00 0.00 0.00
0.00 0.00 0.00 0.00 0.01 0.00 0.00 0.00 0.00 0.00 0.00 0.00 0.00 0.00 0.00 0.00 0.00 0.00 0.00 0.00 0.00 0.00 0.00 0.00 0.00 0.00 0.00 0.00 0.00 0.00 0.00 0.00 0.00 0.00 0.00 0.00 0.00 0.00 0.00 0.00 0.00 0.00 0.00 0.00
0.00 0.00 0.00 0.00 0.00 0.00 0.00 0.00 0.00 0.00 0.00 0.00 0.00 0.00 0.00 0.00 0.00 0.00 0.00 0.00 0.00 0.00 0.00 0.00 0.00 0.00 0.00 0.00 0.00 0.00 0.00 0.00 0.00 0.00 0.00 0.00 0.00 0.00 0.00 0.00 0.00 0.00 0.00 0.00
0.00 0.00 0.00 0.00 0.00 0.00 0.00 0.00 0.00 0.00 0.00 0.00 0.00 0.00 0.00 0.00 0.00 0.00 0.00 0.00 0.00 0.00 0.00 0.00 0.00 0.00 0.00 0.00 0.00 0.00 0.00 0.00 0.00 0.00 0.00 0.00 0.00 0.00 0.00 0.00 0.00 0.00 0.00 0.00
0.00 0.00 0.00 0.00 0.00 0.00 0.00 0.00 0.00 0.00 0.00 0.00 0.00 0.00 0.00 0.00 0.00 0.00 0.00 0.00 0.00 0.00 0.00 0.00 0.00 0.00 0.00 0.00 0.00 0.00 0.00 0.00 0.00 0.00 0.00 0.00 0.00 0.00 0.00 0.00 0.00 0.00 0.00 0.00
MSLP
1012.29 1012.59 1012.74 1012.77 1012.75 1012.73 1012.77 1012.91 1013.17 1013.54 1013.98 1014.45 1014.88 1015.24 1015.51 1015.68 1015.76 1015.77 1015.75 1015.72 1015.69 1015.68 1015.69 1015.71 1015.75 1015.79 1015.84 1015.89 1015.97 1016.06 1016.18 1016.33 1016.49 1016.66 1016.84 1017.01 1017.16 1017.28 1017.36 1017.40 1017.40 1017.35 1017.26 1017.15
1012.40 1012.64 1012.75 1012.76 1012.74 1012.75 1012.84 1013.05 1013.38 1013.81 1014.29 1014.77 1015.19 1015.51 1015.72 1015.81 1015.83 1015.79 1015.73 1015.67 1015.64 1015.64 1015.65 1015.68 1015.71 1015.74 1015.78 1015.82 1015.89 1015.99 1016.12 1016.29 1016.49 1016.70 1016.91 1017.09 1017.23 1017.33 1017.39 1017.39 1017.36 1017.30 1017.22 1017.13
1012.39 1012.58 1012.64 1012.64 1012.64 1012.69 1012.85 1013.14 1013.56 1014.05 1014.56 1015.03 1015.41 1015.67 1015.79 1015.79 1015.72 1015.61 1015.50 1015.43 1015.40 1015.41 1015.45 1015.50 1015.55 1015.60 1015.64 1015.69 1015.76 1015.87 1016.02 1016.23 1016.46 1016.70 1016.93 1017.12 1017.26 1017.34 1017.37 1017.35 1017.30 1017.24 1017.17 1017.11
1012.27 1012.39 1012.41 1012.41 1012.44 1012.56 1012.81 1013.20 1013.69 1014.24 1014.78 1015.24 1015.56 1015.73 1015.74 1015.63 1015.45 1015.26 1015.10 1015.00 1014.97 1015.01 1015.09 1015.18 1015.27 1015.35 1015.42 1015.49 1015.59 1015.72 1015.90 1016.12 1016.38 1016.65 1016.89 1017.10 1017.24 1017.31 1017.31 1017.28 1017.22 1017.15 1017.10 1017.06
1012.08 1012.12 1012.11 1012.11 1012.18 1012.38 1012.73 1013.22 1013.80 1014.40 1014.95 1015.38 1015.63 1015.70 1015.59 1015.35 1015.06 1014.77 1014.55 1014.42 1014.40 1014.47 1014.59 1014.75 1014.90 1015.03 1015.15 1015.26 1015.38 1015.54 1015.74 1015.99 1016.27 1016.55 1016.81 1017.02 1017.15 1017.22 1017.21 1017.16 1017.09 1017.03 1016.98 1016.95
1011.87 1011.84 1011.80 1011.81 1011.93 1012.21 1012.65 1013.22 1013.88 1014.53 1015.08 1015.46 1015.63 1015.58 1015.35 1014.98 1014.57 1014.19 1013.90 1013.75 1013.74 1013.84 1014.02 1014.24 1014.46 1014.66 1014.84 1014.99 1015.15 1015.34 1015.56 1015.83 1016.12 1016.41 1016.67 1016.87 1017.00 1017.06 1017.04 1016.98 1016.90 1016.83 1016.78 1016.75
1011.71 1011.63 1011.57 1011.59 1011.75 1012.09 1012.60 1013.24 1013.94 1014.60 1015.13 1015.46 1015.54 1015.38 1015.02 1014.54 1014.02 1013.56 1013.22 1013.05 1013.04 1013.19 1013.43 1013.72 1014.02 1014.29 1014.53 1014.73 1014.93 1015.14 1015.38 1015.64 1015.93 1016.21 1016.46 1016.66 1016.78 1016.82 1016.79 1016.71 1016.62 1016.54 1016.48 1016.45
1011.65 1011.54 1011.46 1011.49 1011.67 1012.05 1012.60 1013.27 1013.97 1014.62 1015.10 1015.36 1015.35 1015.09 1014.63 1014.05 1013.45 1012.93 1012.56 1012.38 1012.39 1012.58 1012.88 1013.24 1013.61 1013.95 1014.25 1014.50 1014.73 1014.96 1015.20 1015.45 1015.72 1015.98 1016.21 1016.38 1016.48 1016.50 1016.45 1016.36 1016.25 1016.15 1016.07 1016.03
1011.70 1011.56 1011.48 1011.51 1011.71 1012.09 1012.63 1013.28 1013.95 1014.54 1014.96 1015.14 1015.05 1014.71 1014.17 1013.53 1012.88 1012.34 1011.96 1011.79 1011.84 1012.07 1012.43 1012.85 1013.28 1013.68 1014.03 1014.32 1014.57 1014.81 1015.04 1015.27 1015.51 1015.74 1015.93 1016.06 1016.13 1016.11 1016.04 1015.92 1015.79 1015.67 1015.58 1015.52
1011.80 1011.67 1011.60 1011.63 1011.81 1012.17 1012.67 1013.25 1013.85 1014.35 1014.69 1014.79 1014.63 1014.23 1013.66 1013.00 1012.36 1011.83 1011.47 1011.34 1011.42 1011.69 1012.10 1012.57 1013.05 1013.50 1013.88 1014.20 1014.46 1014.69 1014.90 1015.11 1015.31 1015.49 1015.63 1015.72 1015.74 1015.70 1015.59 1015.45 1015.29 1015.15 1015.04 1014.96
1011.91 1011.81 1011.76 1011.79 1011.95 1012.24 1012.66 1013.15 1013.63 1014.03 1014.27 1014.29 1014.08 1013.67 1013.11 1012.48 1011.88 1011.40 1011.10 1011.02 1011.15 1011.46 1011.90 1012.40 1012.91 1013.38 1013.78 1014.11 1014.38 1014.60 1014.79 1014.96 1015.12 1015.25 1015.34 1015.38 1015.36 1015.28 1015.14 1014.97 1014.80 1014.64 1014.51 1014.43
1011.95 1011.91 1011.89 1011.92 1012.04 1012.27 1012.58 1012.95 1013.30 1013.58 1013.72 1013.68 1013.45 1013.05 1012.53 1011.97 1011.46 1011.06 1010.84 1010.82 1010.99 1011.33 1011.79 1012.31 1012.82 1013.29 1013.70 1014.03 1014.29 1014.50 1014.67 1014.81 1014.93 1015.02 1015.07 1015.06 1015.00 1014.88 1014.72 1014.54 1014.35 1014.18 1014.05 1013.96
1011.92 1011.95 1011.97 1012.00 1012.08 1012.23 1012.43 1012.66 1012.88 1013.03 1013.07 1012.98 1012.74 1012.38 1011.94 1011.48 1011.07 1010.77 1010.64 1010.68 1010.90 1011.26 1011.72 1012.22 1012.72 1013.18 1013.58 1013.90 1014.16 1014.36 1014.52 1014.64 1014.73 1014.79 1014.80 1014.76 1014.67 1014.53 1014.36 1014.17 1013.98 1013.81 1013.68 1013.58
1011.83 1011.92 1011.98 1012.02 1012.07 1012.13 1012.22 1012.32 1012.40 1012.43 1012.39 1012.25 1012.02 1011.70 1011.34 1010.99 1010.69 1010.50 1010.45 1010.55 1010.80 1011.16 1011.61 1012.09 1012.56 1013.00 1013.38 1013.69 1013.94 1014.14 1014.29 1014.41 1014.49 1014.53 1014.53 1014.47 1014.37 1014.23 1014.05 1013.87 1013.68 1013.52 1013.40 1013.30
1011.70 1011.86 1011.96 1012.00 1012.01 1012.00 1011.98 1011.96 1011.91 1011.83 1011.71 1011.53 1011.30 1011.03 1010.75 1010.49 1010.30 1010.20 1010.22 1010.37 1010.63 1010.98 1011.40 1011.85 1012.29 1012.70 1013.06 1013.36 1013.62 1013.83 1013.99 1014.11 1014.20 1014.24 1014.24 1014.19 1014.09 1013.95 1013.79 1013.62 1013.45 1013.30 1013.18 1013.09
1011.61 1011.81 1011.92 1011.96 1011.94 1011.86 1011.75 1011.62 1011.46 1011.28 1011.08 1010.86 1010.62 1010.38 1010.16 1009.98 1009.87 1009.84 1009.91 1010.08 1010.35 1010.68 1011.07 1011.48 1011.88 1012.27 1012.62 1012.92 1013.19 1013.42 1013.61 1013.75 1013.86 1013.92 1013.93 1013.89 1013.81 1013.69 1013.54 1013.39 1013.24 1013.10 1012.99 1012.90
1011.56 1011.78 1011.90 1011.93 1011.87 1011.74 1011.55 1011.31 1011.06 1010.79 1010.51 1010.25 1009.99 1009.76 1009.57 1009.44 1009.38 1009.39 1009.49 1009.67 1009.93 1010.25 1010.60 1010.98 1011.36 1011.72 1012.07 1012.39 1012.68 1012.94 1013.16 1013.34 1013.48 1013.57 1013.61 1013.59 1013.53 1013.42 1013.30 1013.16 1013.02 1012.89 1012.77 1012.66
1011.55 1011.76 1011.87 1011.88 1011.79 1011.61 1011.35 1011.04 1010.71 1010.36 1010.01 1009.69 1009.41 1009.17 1008.98 1008.86 1008.82 1008.85 1008.96 1009.14 1009.39 1009.68 1010.02 1010.38 1010.74 1011.11 1011.47 1011.81 1012.14 1012.43 1012.69 1012.92 1013.09 1013.21 1013.27 1013.27 1013.23 1013.14 1013.02 1012.89 1012.75 1012.62 1012.48 1012.35
1011.53 1011.71 1011.79 1011.78 1011.66 1011.44 1011.14 1010.78 1010.38 1009.97 1009.56 1009.19 1008.86 1008.59 1008.39 1008.26 1008.21 1008.24 1008.35 1008.53 1008.76 1009.05 1009.37 1009.73 1010.10 1010.48 1010.86 1011.23 1011.59 1011.93 1012.23 1012.49 1012.70 1012.84 1012.92 1012.94 1012.91 1012.82 1012.71 1012.57 1012.42 1012.26 1012.10 1011.94
1011.43 1011.56 1011.62 1011.58 1011.44 1011.21 1010.88 1010.49 1010.06 1009.60 1009.15 1008.73 1008.36 1008.05 1007.82 1007.66 1007.60 1007.61 1007.71 1007.88 1008.11 1008.39 1008.72 1009.08 1009.47 1009.87 1010.28 1010.69 1011.08 1011.46 1011.79 1012.08 1012.31 1012.47 1012.56 1012.59 1012.55 1012.46 1012.33 1012.18 1012.00 1011.82 1011.63 1011.44
1011.20 1011.29 1011.32 1011.27 1011.13 1010.89 1010.57 1010.18 1009.74 1009.26 1008.79 1008.33 1007.92 1007.57 1007.30 1007.12 1007.02 1007.02 1007.10 1007.26 1007.49 1007.77 1008.11 1008.49 1008.90 1009.32 1009.76 1010.19 1010.61 1011.01 1011.36 1011.66 1011.91 1012.08 1012.17 1012.19 1012.15 1012.04 1011.89 1011.71 1011.51 1011.30 1011.08 1010.86
1010.83 1010.90 1010.92 1010.87 1010.74 1010.54 1010.24 1009.88 1009.45 1008.98 1008.50 1008.02 1007.59 1007.21 1006.90 1006.68 1006.55 1006.52 1006.59 1006.74 1006.96 1007.25 1007.59 1007.98 1008.40 1008.84 1009.28 1009.73 1010.16 1010.56 1010.92 1011.22 1011.46 1011.63 1011.72 1011.73 1011.67 1011.55 1011.38 1011.18 1010.95 1010.72 1010.48 1010.24
1010.38 1010.44 1010.47 1010.45 1010.36 1010.20 1009.96 1009.64 1009.25 1008.81 1008.34 1007.86 1007.41 1007.00 1006.66 1006.41 1006.26 1006.20 1006.24 1006.37 1006.58 1006.86 1007.20 1007.57 1007.99 1008.41 1008.85 1009.28 1009.70 1010.08 1010.43 1010.72 1010.94 1011.09 1011.17 1011.17 1011.10 1010.97 1010.79 1010.57 1010.33 1010.09 1009.84 1009.61
1009.96 1010.04 1010.10 1010.12 1010.09 1009.99 1009.81 1009.55 1009.21 1008.81 1008.36 1007.90 1007.44 1007.02 1006.65 1006.37 1006.18 1006.09 1006.10 1006.20 1006.38 1006.63 1006.94 1007.28 1007.66 1008.05 1008.44 1008.83 1009.21 1009.56 1009.86 1010.12 1010.32 1010.46 1010.52 1010.51 1010.44 1010.30 1010.11 1009.90 1009.66 1009.43 1009.20 1008.99
1009.68 1009.80 1009.91 1009.99 1010.02 1009.99 1009.88 1009.68 1009.39 1009.03 1008.61 1008.16 1007.70 1007.27 1006.89 1006.57 1006.35 1006.22 1006.19 1006.24 1006.38 1006.57 1006.82 1007.11 1007.42 1007.74 1008.06 1008.38 1008.69 1008.98 1009.23 1009.45 1009.61 1009.73 1009.78 1009.76 1009.69 1009.56 1009.38 1009.18 1008.96 1008.75 1008.55 1008.38
1009.66 1009.84 1010.01 1010.15 1010.24 1010.26 1010.21 1010.06 1009.81 1009.49 1009.09 1008.65 1008.20 1007.76 1007.36 1007.02 1006.76 1006.59 1006.51 1006.50 1006.57 1006.70 1006.86 1007.06 1007.27 1007.50 1007.72 1007.95 1008.16 1008.37 1008.56 1008.72 1008.85 1008.93 1008.97 1008.95 1008.88 1008.77 1008.61 1008.44 1008.25 1008.07 1007.90 1007.77
Thickness
5779 5772 5769 5773 5774 5770 5766 5761 5756 5756 5761 5757 5753 5748 5744 5743 5740 5736 5734 5733 5732 5734 5738 5739 5738 5737 5734 5731 5727 5724 5721 5717 5714 5712 5710 5708 5706 5703 5701 5698 5692 5690 5688 5686
5774 5772 5780 5780 5776 5769 5764 5758 5755 5751 5754 5753 5748 5743 5742 5739 5735 5733 5730 5728 5730 5731 5733 5733 5734 5734 5731 5728 5725 5721 5717 5715 5711 5708 5704 5702 5699 5698 5696 5692 5687 5685 5682 5680
5771 5781 5784 5777 5771 5765 5764 5761 5757 5750 5749 5752 5745 5736 5735 5737 5736 5733 5732 5731 5732 5732 5732 5732 5732 5732 5730 5727 5724 5722 5717 5713 5709 5706 5703 5699 5695 5694 5693 5689 5686 5682 5678 5677
5781 5787 5780 5774 5771 5769 5762 5767 5761 5753 5746 5744 5741 5730 5735 5736 5732 5731 5732 5733 5734 5734 5735 5735 5733 5732 5730 5729 5727 5722 5716 5711 5707 5703 5701 5697 5692 5690 5687 5683 5682 5678 5675 5673
5780 5782 5776 5770 5771 5772 5764 5768 5763 5757 5751 5745 5744 5736 5736 5739 5732 5734 5737 5738 5739 5739 5738 5737 5737 5735 5734 5732 5728 5723 5716 5711 5706 5702 5698 5693 5691 5689 5687 5682 5678 5675 5675 5671
5784 5788 5784 5778 5777 5776 5768 5763 5759 5759 5758 5736 5737 5733 5732 5741 5740 5742 5744 5743 5742 5742 5741 5740 5740 5738 5735 5732 5728 5723 5715 5709 5705 5701 5697 5691 5687 5683 5680 5676 5675 5674 5674 5671
5774 5779 5784 5784 5771 5768 5766 5758 5746 5741 5740 5735 5740 5737 5739 5750 5753 5752 5749 5747 5747 5745 5744 5742 5739 5737 5733 5730 5726 5721 5715 5708 5704 5700 5695 5690 5685 5681 5677 5674 5674 5670 5670 5669
5763 5765 5778 5781 5776 5769 5767 5763 5742 5728 5732 5741 5740 5737 5749 5759 5759 5758 5756 5755 5751 5748 5748 5745 5742 5738 5733 5729 5724 5719 5713 5707 5702 5698 5692 5688 5683 5681 5680 5674 5670 5668 5665 5664
5767 5764 5780 5781 5783 5777 5765 5766 5769 5753 5746 5740 5743 5746 5755 5759 5757 5756 5756 5754 5751 5751 5749 5745 5742 5738 5733 5727 5722 5717 5710 5705 5700 5696 5690 5685 5681 5677 5674 5669 5666 5666 5661 5658
5775 5761 5775 5777 5779 5772 5774 5769 5759 5751 5730 5730 5738 5742 5747 5751 5754 5756 5756 5755 5754 5752 5749 5745 5741 5736 5732 5727 5720 5715 5708 5702 5698 5693 5688 5685 5680 5675 5670 5666 5662 5658 5655 5651
5778 5761 5767 5771 5765 5766 5760 5759 5758 5757 5747 5732 5731 5745 5768 5763 5763 5761 5760 5760 5758 5754 5750 5745 5740 5735 5730 5724 5718 5711 5706 5700 5695 5690 5685 5680 5676 5672 5668 5663 5659 5655 5651 5646
5773 5766 5758 5765 5774 5776 5771 5765 5758 5743 5740 5742 5739 5750 5776 5774 5773 5769 5767 5764 5761 5755 5751 5744 5738 5731 5726 5721 5716 5710 5704 5699 5694 5689 5682 5677 5673 5668 5664 5660 5656 5651 5646 5642
5768 5756 5745 5749 5755 5764 5764 5763 5762 5756 5747 5744 5740 5751 5773 5772 5769 5768 5765 5762 5756 5750 5745 5740 5734 5728 5723 5719 5714 5709 5703 5698 5693 5687 5680 5675 5670 5665 5660 5656 5651 5646 5641 5637
5769 5758 5749 5742 5751 5762 5758 5760 5759 5752 5748 5747 5749 5755 5766 5766 5765 5765 5763 5759 5753 5746 5740 5736 5730 5725 5721 5716 5710 5705 5701 5696 5690 5684 5678 5672 5666 5662 5656 5652 5647 5641 5636 5631
5763 5754 5758 5761 5766 5763 5759 5759 5759 5752 5752 5747 5753 5757 5765 5768 5766 5765 5762 5756 5749 5742 5737 5733 5728 5724 5718 5713 5707 5702 5697 5692 5686 5679 5674 5669 5664 5658 5653 5647 5642 5636 5630 5625
5758 5751 5754 5752 5761 5760 5753 5758 5759 5756 5756 5754 5753 5756 5772 5770 5766 5761 5757 5752 5745 5741 5738 5734 5728 5723 5717 5711 5705 5700 5694 5689 5682 5675 5670 5666 5660 5654 5649 5643 5637 5631 5625 5619
5757 5747 5741 5742 5758 5751 5743 5759 5760 5759 5761 5756 5751 5759 5766 5761 5758 5757 5755 5751 5746 5743 5739 5734 5729 5723 5717 5711 5705 5698 5692 5686 5679 5672 5667 5662 5656 5650 5644 5638 5632 5626 5619 5613
5749 5743 5743 5743 5741 5721 5755 5775 5769 5761 5762 5765 5761 5763 5762 5760 5760 5760 5759 5754 5748 5745 5740 5735 5730 5724 5717 5711 5704 5696 5690 5682 5675 5669 5664 5659 5652 5646 5639 5632 5626 5619 5613 5607
5751 5741 5739 5738 5732 5737 5759 5768 5765 5755 5755 5769 5764 5762 5763 5761 5756 5757 5759 5756 5751 5747 5742 5736 5731 5726 5717 5709 5702 5693 5685 5679 5673 5667 5661 5655 5649 5641 5634 5627 5620 5614 5607 5601
5742 5740 5736 5731 5721 5721 5748 5765 5770 5759 5745 5769 5765 5761 5760 5753 5744 5754 5763 5757 5751 5747 5742 5735 5730 5722 5713 5705 5698 5688 5682 5676 5670 5664 5658 5651 5643 5635 5628 5621 5614 5608 5601 5595
5734 5729 5729 5727 5722 5737 5758 5762 5759 5735 5740 5762 5764 5761 5758 5752 5752 5759 5760 5755 5749 5744 5738 5732 5725 5717 5710 5702 5693 5683 5678 5672 5667 5661 5653 5646 5638 5630 5624 5617 5610 5603 5597 5591
5737 5733 5726 5726 5717 5727 5752 5753 5744 5743 5754 5757 5757 5758 5755 5754 5756 5754 5752 5748 5744 5739 5734 5728 5719 5713 5706 5698 5688 5680 5673 5669 5663 5655 5647 5640 5633 5626 5621 5612 5605 5599 5592 5587
5740 5741 5739 5735 5735 5743 5749 5745 5747 5747 5745 5747 5750 5753 5752 5750 5750 5749 5746 5743 5740 5736 5731 5724 5716 5708 5701 5693 5685 5676 5671 5665 5657 5649 5642 5635 5628 5622 5615 5608 5602 5596 5591 5586
5740 5737 5733 5729 5738 5740 5740 5739 5738 5738 5737 5742 5745 5747 5747 5745 5745 5743 5741 5738 5734 5730 5725 5719 5711 5703 5695 5689 5681 5674 5668 5660 5651 5643 5637 5631 5624 5618 5612 5604 5599 5594 5589 5585
5727 5727 5725 5721 5728 5730 5728 5721 5723 5726 5730 5733 5736 5738 5738 5737 5736 5735 5733 5730 5727 5723 5718 5713 5705 5698 5692 5684 5677 5670 5663 5654 5645 5638 5633 5627 5621 5616 5607 5601 5595 5589 5585 5579
5718 5715 5713 5713 5711 5710 5707 5710 5713 5714 5715 5718 5720 5722 5725 5725 5723 5723 5721 5719 5715 5712 5708 5702 5696 5691 5686 5679 5671 5664 5658 5650 5640 5633 5628 5624 5618 5611 5604 5598 5594 5588 5579 5573